"Pseudo-MPEC" for CAXYEF2

Created 2024 Oct 4 10:22:08 UT using Find_Orb

Click here for an explanation of pseudo-MPECs

 
 Astrometry: 
     CAXYEF2*1C2024 10 02.23841900 31 59.567+24 44 41.39   ~A26b 21.06GVNEOCPG96
     CAXYEF2 1C2024 10 02.24406500 32 04.355+24 45 51.05   ~A26b 21.11GVNEOCPG96
     CAXYEF2 1C2024 10 02.24973500 32 09.100+24 47 00.64   ~A26b 21.02GVNEOCPG96
     CAXYEF2 1C2024 10 02.25537900 32 13.870+24 48 10.22   ~A26b 21.21GVNEOCPG96
     CAXYEF2  C2024 10 02.26744600 32 22.947+24 50 32.42   ~A277 20.6 GVNEOCPH01
     CAXYEF2  C2024 10 02.27091900 32 25.834+24 51 14.57   ~A277 20.6 GVNEOCPH01
     CAXYEF2  C2024 10 02.28225400 32 35.269+24 53 31.59   ~A277 20.6 GVNEOCPH01
     CAXYEF2  C2024 10 02.28831400 32 40.307+24 54 44.60   ~A277 20.3 GVNEOCPH01
     CAXYEF2 KC2024 10 02.39322800 34 07.975+25 15 20.81   ~A2A7 20.93GVNEOCPI52
     CAXYEF2 KC2024 10 02.39579100 34 10.088+25 15 50.94   ~A2A7 20.70GVNEOCPI52
     CAXYEF2 KC2024 10 02.39836200 34 12.259+25 16 20.46   ~A2A7 20.00GVNEOCPI52
     CAXYEF2 KC2024 10 02.40093700 34 14.430+25 16 48.94   ~A2A7 20.49GVNEOCPI52
     CAXYEF2 KC2024 10 03.21599500 46 05.60 +27 41 15.4    ~A367 20.7 GXNEOCP858
     CAXYEF2 KC2024 10 03.22397000 46 11.39 +27 42 33.8    ~A367 21.5 GXNEOCP858
     CAXYEF2 KC2024 10 03.23200900 46 17.24 +27 43 52.5    ~A367 21.3 GXNEOCP858
     CAXYEF2 !C2024 10 03.23423 00 46 21.31 +27 44 09.9    ~A377 20.9 GVNEOCP673
     CAXYEF2 !C2024 10 03.24088 00 46 26.14 +27 45 15.0    ~A377       VNEOCP673
     CAXYEF2 KC2024 10 04.15741300 57 51.56 +29 56 56.9    ~A44M       VNEOCPH21
     CAXYEF2 KC2024 10 04.16581000 57 56.92 +29 58 03.7    ~A44M 21.8 GVNEOCPH21
     CAXYEF2 KC2024 10 04.18402600 58 13.055+30 00 33.52   ~A457 21.75GVNEOCPI52
     CAXYEF2 KC2024 10 04.18726400 58 15.128+30 00 59.51   ~A457 21.95GVNEOCPI52
     CAXYEF2 KC2024 10 04.19049600 58 17.234+30 01 25.36   ~A457 20.86GVNEOCPI52
     CAXYEF2 KC2024 10 04.19371800 58 19.304+30 01 51.78   ~A457 20.98GVNEOCPI52

Station data:
(673) Table Mountain Observatory, Wrightwood  (N34.381485 W117.682170)
   US/California.  Observers J. Chesley, J. Pittichova. Measurer W. M. Owen
   Jr. 0.61-m f/16 reflector + CCD.
(858) Tebbutt Observatory, Edgewood  (N35.093869 W106.220000)  US/New Mexico.
    Observer F. B. Zoltowski. 0.16-m refractor + CCD0.51-m Schmidt-Cassegrain
   + CCD.
(G96) Mt. Lemmon Survey  (N32.442729 W110.788720)  US/Arizona.  Observer E.
   J. Christensen. 1.5-m reflector + 10K CCD.
(H01) Magdalena Ridge Observatory, Socorro  (N33.984833 W107.189333)  US/New
   Mexico.  Observers W. H. Ryan, E. V. Ryan. Measurer W. H. Ryan. 2.4-m
   f/8.9 reflector + CCD.
(H21) Astronomical Research Observatory, Westfield  (N39.483054 W87.968270)
   US/Illinois.  Observer R. Holmes. Measurers S. Foglia, L. Buzzi, T.
   Linder, R. Holmes. 0.76-m f/3.0 astrograph + CCD0.81-m f/4.0 astrograph +
   CCD0.61-m f/4.5 astrograph + CCD0.40-m f/5.32 astrograph + CCD.
(I52) Steward Observatory, Mt. Lemmon Station  (N32.442570 W110.788920)
   US/Arizona.  Observers T. A. Pruyne, B. M. Africano, E. J. Christensen, G.
   A. Farneth, D. C. Fuls, A. R. Gibbs, A. D. Grauer, H. Gröller, J. A.
   Johnson, R. A. Kowalski, S. M. Larson, G. J. Leonard, D. Rankin, R. L.
   Seaman, F. C. Shelly, K. W. Wierzchoś. 1.0-m prime focus + CCD.

Orbital elements:  CAXYEF2
   Perihelion 2024 Sep 14.75559 +/- 0.00335 TT = 18:08:02 (JD 2460568.25559)
Epoch 2024 Oct  4.0 TT = JDT 2460587.5   Earth MOID: 0.0156      AutoNEOCP
M   6.19710612 +/- 0.020            (J2000 ecliptic)
n   0.32202104 +/- 0.00109          Peri.  345.81913 +/- 0.007
a   2.10804501 +/- 0.00475          Node     3.11669 +/- 0.0014
e   0.5198567 +/- 0.00108           Incl.    6.02930 +/- 0.008
P   3.06069                H 27.17  G  0.15   U  8.2
q 1.01216355 +/- 1.81e-5    Q 3.20392648 +/- 0.00948
From 23 observations 2024 Oct. 2-4 (46.9 hr); mean residual 0".29
Residuals in arcseconds: 
241002 G96  .51-  .15-    241002 I52  .19-  .59-    241003 673  .07-  .17-    
241002 G96  .05+  .18-    241002 I52  .43-  .29+    241004 H21  .28-  .32+    
241002 G96  .10-  .38-    241002 I52  .01+  .51+    241004 H21  .16+  .16-    
241002 G96  .52+  .08-    241002 I52  .38+  .32-    241004 I52  .34-  .06+    
241002 H01  .16+  .18+    241003 858  .24-  .38+    241004 I52  .26-  .16-    
241002 H01  .05+  .18+    241003 858  .26-  .04+    241004 I52  .36+  .43-    
241002 H01  .09+  .13+    241003 858  .19+  .29-    241004 I52  .66+  .00     
241002 H01  .14+  .18+    241003 673  .01+  .41+    

Ephemerides (geocentric):
Date (UTC) HH   RA             Dec           delta  r     elong  mag " sig PA
---- --------  ------------   ------------  ------ ------ -----  --- --------
2024 10 04 10  01 00 42.976   +30 30 14.12  .04476 1.0405 153.6 21.7 .220 107
2024 10 04 11  01 01 10.945   +30 35 17.51  .04493 1.0406 153.5 21.7 .223 106
2024 10 04 12  01 01 38.745   +30 40 18.09  .04510 1.0408 153.4 21.7 .226 106
2024 10 04 13  01 02 06.379   +30 45 15.88  .04528 1.0409 153.4 21.7 .228 106
2024 10 04 14  01 02 33.846   +30 50 10.91  .04545 1.0410 153.3 21.7 .231 106
2024 10 04 15  01 03 01.149   +30 55 03.22  .04563 1.0411 153.2 21.7 .234 105
2024 10 04 16  01 03 28.289   +30 59 52.83  .04580 1.0412 153.1 21.7 .237 105
2024 10 04 17  01 03 55.266   +31 04 39.77  .04597 1.0414 153.1 21.7 .239 105
2024 10 04 18  01 04 22.082   +31 09 24.07  .04615 1.0415 153.0 21.8 .242 105
2024 10 04 19  01 04 48.738   +31 14 05.76  .04632 1.0416 152.9 21.8 .245 105
2024 10 04 20  01 05 15.235   +31 18 44.86  .04650 1.0417 152.8 21.8 .247 104
2024 10 04 21  01 05 41.574   +31 23 21.42  .04668 1.0418 152.8 21.8 .250 104
2024 10 04 22  01 06 07.756   +31 27 55.44  .04685 1.0420 152.7 21.8 .252 104
2024 10 04 23  01 06 33.783   +31 32 26.97  .04703 1.0421 152.6 21.8 .255 104
2024 10 05 00  01 06 59.655   +31 36 56.02  .04720 1.0422 152.5 21.8 .257 104
2024 10 05 01  01 07 25.374   +31 41 22.63  .04738 1.0423 152.5 21.8 .260 103
2024 10 05 02  01 07 50.941   +31 45 46.81  .04756 1.0424 152.4 21.8 .262 103
2024 10 05 03  01 08 16.356   +31 50 08.61  .04773 1.0426 152.3 21.9 .264 103
2024 10 05 04  01 08 41.622   +31 54 28.03  .04791 1.0427 152.3 21.9 .267 103
2024 10 05 05  01 09 06.738   +31 58 45.11  .04809 1.0428 152.2 21.9 .269 103
2024 10 05 06  01 09 31.706   +32 02 59.88  .04827 1.0429 152.1 21.9 .271 103
2024 10 05 07  01 09 56.527   +32 07 12.35  .04844 1.0430 152.1 21.9 .274 102
2024 10 05 08  01 10 21.203   +32 11 22.55  .04862 1.0432 152.0 21.9 .276 102
2024 10 05 09  01 10 45.733   +32 15 30.51  .04880 1.0433 151.9 21.9 .278 102
2024 10 05 10  01 11 10.120   +32 19 36.25  .04898 1.0434 151.9 21.9 .280 102
2024 10 05 11  01 11 34.363   +32 23 39.79  .04916 1.0435 151.8 21.9 .283 102
2024 10 05 12  01 11 58.465   +32 27 41.16  .04934 1.0437 151.8 21.9 .285 102
2024 10 05 13  01 12 22.426   +32 31 40.38  .04952 1.0438 151.7 22.0 .287 101
2024 10 05 14  01 12 46.247   +32 35 37.47  .04970 1.0439 151.6 22.0 .289 101
2024 10 05 15  01 13 09.929   +32 39 32.45  .04987 1.0440 151.6 22.0 .291 101
2024 10 05 16  01 13 33.473   +32 43 25.35  .05005 1.0442 151.5 22.0 .293 101
2024 10 05 17  01 13 56.880   +32 47 16.19  .05023 1.0443 151.5 22.0 .295 101
2024 10 05 18  01 14 20.152   +32 51 04.99  .05041 1.0444 151.4 22.0 .297 101
2024 10 05 19  01 14 43.288   +32 54 51.78  .05059 1.0445 151.3 22.0 .299 101
2024 10 05 20  01 15 06.290   +32 58 36.56  .05078 1.0447 151.3 22.0 .301 100
2024 10 05 21  01 15 29.160   +33 02 19.37  .05096 1.0448 151.2 22.0 .303 100
2024 10 05 22  01 15 51.897   +33 06 00.23  .05114 1.0449 151.2 22.0 .305 100
2024 10 05 23  01 16 14.503   +33 09 39.15  .05132 1.0450 151.1 22.0 .307 100
2024 10 06 00  01 16 36.978   +33 13 16.15  .05150 1.0452 151.1 22.1 .309 100
2024 10 06 01  01 16 59.324   +33 16 51.26  .05168 1.0453 151.0 22.1 .311 100
2024 10 06 02  01 17 21.542   +33 20 24.50  .05186 1.0454 151.0 22.1 .313 100
2024 10 06 03  01 17 43.632   +33 23 55.87  .05204 1.0455 150.9 22.1 .315  99
2024 10 06 04  01 18 05.595   +33 27 25.42  .05223 1.0457 150.8 22.1 .316  99
2024 10 06 05  01 18 27.433   +33 30 53.14  .05241 1.0458 150.8 22.1 .318  99
2024 10 06 06  01 18 49.145   +33 34 19.07  .05259 1.0459 150.7 22.1 .320  99
2024 10 06 07  01 19 10.734   +33 37 43.21  .05277 1.0460 150.7 22.1 .322  99
2024 10 06 08  01 19 32.199   +33 41 05.60  .05296 1.0462 150.6 22.1 .323  99
2024 10 06 09  01 19 53.542   +33 44 26.23  .05314 1.0463 150.6 22.1 .325  99